Printer-friendly version

IAU Minor Planet Center

Minor Planet Center

MPEC 2006-U67 : 2006 UC185

The following Minor Planet Electronic Circular may be linked-to from your own Web pages, but must not otherwise be redistributed electronically.


Read MPEC 2006-U66 Read MPEC 2006-U68


M.P.E.C. 2006-U67                                Issued 2006 Oct. 29, 00:49 UT

     The Minor Planet Electronic Circulars contain information on unusual
         minor planets and routine data on comets.  They are published
   on behalf of Commission 20 of the International Astronomical Union by the
          Minor Planet Center, Smithsonian Astrophysical Observatory,
                          Cambridge, MA 02138, U.S.A.

             Prepared using the Tamkin Foundation Computer Network

                              MPC@CFA.HARVARD.EDU
          URL http://cfa-www.harvard.edu/iau/mpc.html  ISSN 1523-6714

                                  2006 UC185

Observations:
     K06UI5C* C2006 10 28.22926 01 56 34.72 +02 40 01.5          16.0 V EU067703
     K06UI5C  C2006 10 28.23574 01 56 38.40 +02 42 12.7          16.0 V EU067703
     K06UI5C  C2006 10 28.24223 01 56 42.07 +02 44 23.8          16.0 V EU067703
     K06UI5C  C2006 10 28.24870 01 56 45.70 +02 46 34.6          16.1 V EU067703
     K06UI5C  C2006 10 28.30765 01 57 18.43 +03 06 10.0          16.1 V EU067703
     K06UI5C  C2006 10 28.30799 01 57 18.64 +03 06 16.8          16.0 V EU067703
     K06UI5C  C2006 10 28.39729 01 58 07.89 +03 35 12.8          16.0 V EU067703
     K06UI5C  C2006 10 28.39763 01 58 08.07 +03 35 19.0          16.0 V EU067703
     K06UI5C  C2006 10 28.39800 01 58 08.25 +03 35 26.4          15.9 V EU067703
     K06UI5C  C2006 10 28.39835 01 58 08.47 +03 35 33.3          16.0 V EU067703
     K06UI5C  C2006 10 28.70003 02 01 36.12 +05 06 27.4          15.9 R EU067A50
     K06UI5C  C2006 10 28.70097 02 01 36.64 +05 06 43.8          15.8 R EU067A50
     K06UI5C  C2006 10 28.70191 02 01 37.15 +05 07 00.3          15.8 R EU067A50
     K06UI5C  C2006 10 28.70284 02 01 37.67 +05 07 17.0          15.7 R EU067A50
     K06UI5C  C2006 10 28.70370 02 01 38.15 +05 07 31.7          15.8 R EU067A50
     K06UI5C  C2006 10 28.88656 02 03 19.75 +06 00 06.8          16.4 R EU067J87
     K06UI5C  C2006 10 28.88749 02 03 20.20 +06 00 22.6          16.4 R EU067J87
     K06UI5C  C2006 10 28.88840 02 03 20.65 +06 00 37.6          16.4 R EU067J87
     K06UI5C  C2006 10 28.93600 02 03 38.73 +06 13 23.8          16.4 V EU067595
     K06UI5C  C2006 10 28.93666 02 03 39.05 +06 13 34.4          16.3 V EU067595
     K06UI5C  C2006 10 28.94603 02 03 43.42 +06 16 07.4          16.2 V EU067595
     K06UI5C  C2006 10 28.94799 02 03 44.32 +06 16 39.2          16.4 V EU067595
     K06UI5C  C2006 10 28.96113 02 03 53.80 +06 20 36.2          15.6 V EU067941
     K06UI5C  C2006 10 28.96200 02 03 54.21 +06 20 50.4          15.9 V EU067941
     K06UI5C  C2006 10 28.96323 02 03 54.76 +06 21 10.2          15.8 V EU067941
     K06UI5C  C2006 10 28.96341 02 03 54.84 +06 21 13.2          15.8 V EU067941

Observer details:
595 Farra d'Isonzo.  Observer E. Pettarin.  0.40-m f/4.5 reflector + CCD.
703 Catalina Sky Survey.  Observer E. J. Christensen.  Measurers E. C. Beshore,
    E. J. Christensen, G. J. Garradd, A. R. Gibbs, A. D. Grauer, R. E. Hill,
    R. A. Kowalski, S. M. Larson, R. H. McNaught.  0.68-m Schmidt + CCD.
941 Observatorio Pla D'Arguines.  Observers R. Ferrando, M. Ferrando.
    Measurer R. Ferrando.  0.36-m f/10 Schmidt-Cassegrain + CCD.
A50 Andrushivka Astronomical Observatory.  Observers O. Gerashchenko,
    Y. Ivashchenko, D. Kyrylenko.  0.6-m reflector + CCD.
J87 La Canada.  Observer J. Lacruz.  0.30-m Schmidt-Cassegrain + CCD.

Orbital elements:
2006 UC185                                               Earth MOID = 0.0120 AU
Epoch 2006 Sept. 22.0 TT = JDT 2454000.5                MPC
M   2.19777              (2000.0)            P               Q
n   0.52459888     Peri.  307.04556     +0.96311486     +0.26522420
a   1.5225953      Node    37.63480     -0.21716099     +0.86582905
e   0.3964910      Incl.    4.26878     -0.15890525     +0.42425957
P   1.88           H   23.1           G   0.15           U   6
Residuals in seconds of arc
061028 703  0.1-  0.1+    061028 703  0.0   0.1+    061028 595  0.4-  0.0
061028 703  0.1-  0.0     061028 A50  0.3+  0.1+    061028 595  0.2-  0.2-
061028 703  0.1-  0.0     061028 A50  0.2+  0.0     061028 595  0.1-  0.1+
061028 703  0.3-  0.3+    061028 A50  0.0   0.1-    061028 595  0.3-  0.0
061028 703  0.1+  0.0     061028 A50  0.0   0.3+    061028 941  0.1+  0.1-
061028 703  0.5+  0.1+    061028 A50  0.1-  0.2-    061028 941  0.3+  0.0
061028 703  0.2+  0.2-    061028 J87  0.0   0.0     061028 941  0.1+  0.1-
061028 703  0.1+  0.5-    061028 J87  0.0   0.3+    061028 941  0.1+  0.0
061028 703  0.3-  0.1-    061028 J87  0.1+  0.1+

Ephemeris:
2006 UC185               a,e,i = 1.52, 0.40, 4                   q = 0.9189
Date    TT    R. A. (2000) Decl.     Delta      r     Elong.  Phase     V
2006 10 22    20 37.57   -63 00.1    0.0191   0.994    86.1    92.8    17.8
2006 10 24    23 56.55   -43 50.7    0.0161   1.003   118.6    60.6    16.3
2006 10 26    01 19.02   -15 36.9    0.0196   1.011   150.3    29.2    15.9
2006 10 28    01 53.80   +01 22.3    0.0272   1.020   167.9    11.8    16.0
2006 10 30    02 12.10   +10 24.8    0.0365   1.030   176.6     3.2    16.3
2006 11 01    02 23.24   +15 39.8    0.0466   1.039   178.6     1.3    16.7

2006 11 11    02 45.41   +24 59.7    0.101    1.091   171.2     8.0    18.9
2006 11 21    02 53.21   +27 15.8    0.162    1.146   166.0    12.0    20.2
2006 12 01    02 59.39   +27 56.0    0.231    1.205   159.2    16.9    21.2

Kyle E. Smalley              (C) Copyright 2006 MPC           M.P.E.C. 2006-U67

Read MPEC 2006-U66 Read MPEC 2006-U68


Our Web policy. Index to the CBAT/MPC/ICQ pages.


Valid HTML 4.01!